Location: Newark
(43.4306°N, 0.3089°E)
Time: 09:57:48
(UTC+00:00)

Vanguard 3 - Pass Details

Date: 29 August 2019
Orbit: 508 x 3263 km, 33.4° (Epoch: 14 September)

Event Time Altitude Azimuth Distance (km) Brightness Sun altitude
Rises 18:49:07 0° 266° (W) 4,446 12.6 -2.4°
Reaches altitude 10° 18:53:21 10° 253° (WSW) 2,971 11.1 -3.2°
Maximum altitude 18:58:22 22° 206° (SSW) 1,725 9.0 -4.1°
Drops below altitude 10° 19:01:59 10° 155° (SSE) 2,066 8.9 -4.7°
Enters shadow 19:03:57 - 140° (SE) 2,654 9.3 -5.0°
Sets 19:04:21 0° 138° (SE) 2,790 - -5.1°
